Flag for U.S.A. Weather past 2 weeks in Pomona, California, U.S.A.

Now
73 °F

Scattered clouds.


Feels Like: 77 °F
Forecast: 66 / 92 °F
Wind: No wind

Location: Chino Airport

Current Time: Jul 29, 2014 at 8:09:21 AM

Latest Report: Jul 29, 2014 at 7:53 AM


Visibility: 10 mi

Pressure: 30.03 "Hg

Humidity: 41%

Dew point: 48 °F

Location of PomonaLocation

Historic Weather in Pomona — Graph

°F

Pomona temperature yesterday

Maximum temperature yesterday: 94 °F (at 2:53 PM)
Minimum temperature yesterday: 69 °F (at 5:53 AM)
Average temperature yesterday: 79 °F

Past Weeks' High & Low Weather Summary

 TemperatureHumidityPressure
High102 °F (Jul 24, 1:53 PM)97% (Jul 18, 5:53 AM)30.07 "Hg (Jul 18, 5:53 AM)
Low57 °F (Jul 23, 4:53 AM)17% (Jul 24, 1:53 PM)29.72 "Hg (Jul 24, 5:53 PM)
Average75 °F62%29.96 "Hg
* Reported Jul 14 6:53 AM — Jul 29 6:53 AM, Pomona, Weather by CustomWeather, © 2014

Note: Actual official high and low records may vary slightly from our data, if they occured in-between our weather recording intervals... More about our weather records

Advertising

Pomona weather history for previous 24 hours

 ConditionsComfort  
Time TempWeatherWind HumidityBarometerVisibility
6:53 AM
Jul 29
66 °FPassing clouds.No wind65%30.03 "Hg10 mi
5:53 AM65 °FClear.No wind61%30.02 "Hg1 mi
4:53 AM65 °FClear.No wind61%30.02 "Hg5 mi
3:53 AM65 °FClear.No wind61%30.02 "Hg6 mi
2:53 AM66 °FClear.No wind59%30.02 "Hg5 mi
1:53 AM65 °FClear.3 mph66%30.03 "Hg8 mi
12:53 AM71 °FClear.No wind42%30.03 "Hg6 mi
11:53 PM
Jul 28
69 °FClear.3 mph49%30.03 "Hg8 mi
10:53 PM73 °FClear.No wind34%30.03 "Hg9 mi
9:53 PM74 °FClear.6 mph32%30.03 "Hg9 mi
8:53 PM76 °FSunny.7 mph22%30.01 "Hg9 mi
7:53 PM82 °FScattered clouds.10 mph18%29.99 "Hg10 mi
6:53 PM87 °FScattered clouds.13 mph18%29.96 "Hg10 mi
5:53 PM90 °FPartly sunny.15 mph32%29.95 "Hg10 mi
4:53 PM92 °FPartly sunny.14 mph27%29.95 "Hg10 mi
3:53 PM91 °FBroken clouds.9 mph23%29.98 "Hg10 mi
2:53 PM94 °FBroken clouds.13 mph19%29.99 "Hg10 mi
1:53 PM91 °FBroken clouds.8 mph25%30.02 "Hg10 mi
12:53 PM88 °FBroken clouds.3 mph29%30.04 "Hg10 mi
11:53 AM81 °FPartly sunny.6 mph47%30.06 "Hg10 mi
10:53 AM80 °FPartly sunny.6 mph56%30.07 "Hg10 mi
9:53 AM79 °FPartly sunny.6 mph38%30.06 "Hg10 mi
8:53 AM78 °FPartly sunny.No wind37%30.05 "Hg10 mi
Weather by CustomWeather, © 2014

See weather overviewHow to use our weather pages